| time (UTC) | temp F | wind direction | speed knots | gust knots | rain 1hr in | rain 24hr in | rain mn in | humidity % | barometer mb |
| 20260507220504 | 61 | 180 | 4.3 | 8.7 | 0.00 | 0.18 | 0.01 | 73 | 1008.1 |
| 20260507220014 | 61 | 214 | 4.3 | 8.7 | 0.00 | 0.18 | 0.01 | 73 | 1008.1 |
| 20260507215504 | 61 | 168 | 4.3 | 11.3 | 0.00 | 0.18 | 0.01 | 72 | 1008.1 |
| 20260507215005 | 61 | 174 | 7.0 | 11.3 | 0.00 | 0.18 | 0.01 | 70 | 1008.2 |
| 20260507214520 | 62 | 211 | 5.2 | 9.6 | 0.00 | 0.18 | 0.01 | 69 | 1008.2 |
| 20260507214004 | 62 | 180 | 3.5 | 9.6 | 0.00 | 0.18 | 0.01 | 68 | 1008.2 |
| 20260507213504 | 62 | 217 | 5.2 | 8.7 | 0.00 | 0.18 | 0.01 | 69 | 1008.2 |
| 20260507213016 | 62 | 153 | 4.3 | 9.6 | 0.00 | 0.18 | 0.01 | 67 | 1008.1 |
| 20260507212508 | 62 | 195 | 5.2 | 9.6 | 0.00 | 0.18 | 0.01 | 68 | 1008.0 |
| 20260507212006 | 62 | 155 | 6.1 | 10.4 | 0.00 | 0.18 | 0.01 | 67 | 1008.1 |
| 20260507211516 | 62 | 151 | 7.0 | 10.4 | 0.00 | 0.18 | 0.01 | 67 | 1008.0 |
| 20260507210514 | 62 | 153 | 3.5 | 10.4 | 0.00 | 0.18 | 0.01 | 66 | 1008.0 |
| 20260507205505 | 63 | 233 | 6.1 | 10.4 | 0.00 | 0.18 | 0.01 | 66 | 1007.9 |
| 20260507205002 | 63 | 222 | 3.5 | 10.4 | 0.00 | 0.18 | 0.01 | 66 | 1007.9 |
| 20260507204510 | 63 | 214 | 7.0 | 10.4 | 0.00 | 0.18 | 0.01 | 65 | 1007.9 |
| 20260507204006 | 63 | 165 | 4.3 | 7.8 | 0.00 | 0.18 | 0.01 | 66 | 1007.9 |
| 20260507203507 | 63 | 141 | 5.2 | 7.8 | 0.00 | 0.18 | 0.01 | 64 | 1008.0 |
| 20260507203015 | 64 | 148 | 6.1 | 7.8 | 0.00 | 0.18 | 0.01 | 62 | 1008.0 |
| 20260507202504 | 65 | 194 | 3.5 | 7.8 | 0.00 | 0.18 | 0.01 | 60 | 1008.0 |
| 20260507202006 | 65 | 287 | 0.9 | 7.8 | 0.00 | 0.18 | 0.01 | 57 | 1007.9 |
| 20260507201513 | 65 | 221 | 0.0 | 9.6 | 0.00 | 0.18 | 0.01 | 59 | 1007.9 |
| 20260507201005 | 65 | 120 | 3.5 | 9.6 | 0.00 | 0.18 | 0.01 | 59 | 1008.1 |
| 20260507195506 | 65 | 248 | 4.3 | 7.8 | 0.00 | 0.18 | 0.01 | 55 | 1008.3 |
| 20260507194003 | 63 | 139 | 0.9 | 5.2 | 0.00 | 0.18 | 0.01 | 57 | 1008.5 |
| 20260507193506 | 63 | 158 | 0.0 | 5.2 | 0.00 | 0.18 | 0.01 | 56 | 1008.7 |
| 20260507193010 | 64 | 273 | 3.5 | 4.3 | 0.00 | 0.18 | 0.01 | 58 | 1008.9 |
| 20260507192506 | 63 | 281 | 0.0 | 4.3 | 0.00 | 0.18 | 0.01 | 58 | 1008.9 |
| 20260507192004 | 63 | 272 | 1.7 | 4.3 | 0.00 | 0.18 | 0.01 | 59 | 1009.0 |
| 20260507191514 | 63 | 304 | 0.0 | 4.3 | 0.00 | 0.18 | 0.01 | 60 | 1009.1 |
| 20260507191007 | 63 | 148 | 0.9 | 6.1 | 0.00 | 0.18 | 0.01 | 57 | 1009.3 |
| 20260507190508 | 63 | 254 | 1.7 | 7.0 | 0.00 | 0.18 | 0.01 | 61 | 1009.3 |
| 20260507190018 | 64 | 231 | 4.3 | 7.0 | 0.00 | 0.18 | 0.01 | 61 | 1009.3 |
| 20260507184007 | 64 | 214 | 5.2 | 7.8 | 0.00 | 0.18 | 0.01 | 54 | 1009.3 |
| 20260507183506 | 66 | 210 | 1.7 | 6.1 | 0.00 | 0.18 | 0.01 | 61 | 1009.2 |
| 20260507183018 | 64 | 247 | 0.0 | 3.5 | 0.00 | 0.18 | 0.01 | 60 | 1009.3 |
| 20260507182503 | 63 | 319 | 0.0 | 5.2 | 0.00 | 0.18 | 0.01 | 60 | 1009.5 |
| 20260507182011 | 62 | 254 | 0.0 | 6.1 | 0.00 | 0.18 | 0.01 | 61 | 1009.5 |
| 20260507181508 | 62 | 277 | 2.6 | 6.1 | 0.00 | 0.18 | 0.01 | 61 | 1009.5 |
| 20260507181006 | 61 | 304 | 0.9 | 4.3 | 0.00 | 0.18 | 0.01 | 60 | 1009.6 |
| 20260507180504 | 61 | 283 | 2.6 | 4.3 | 0.00 | 0.18 | 0.01 | 64 | 1009.7 |
| 20260507180016 | 61 | 228 | 0.9 | 3.5 | 0.00 | 0.18 | 0.01 | 62 | 1009.7 |
| 20260507175508 | 61 | 226 | 1.7 | 3.5 | 0.00 | 0.18 | 0.01 | 61 | 1009.9 |
| 20260507175009 | 60 | 217 | 0.0 | 4.3 | 0.00 | 0.18 | 0.01 | 61 | 1009.9 |
| 20260507174519 | 59 | 265 | 0.9 | 4.3 | 0.00 | 0.18 | 0.01 | 62 | 1009.9 |
| 20260507173031 | 60 | 204 | 6.1 | 7.8 | 0.00 | 0.18 | 0.01 | 66 | 1010.1 |
| 20260507172507 | 60 | 214 | 0.9 | 4.3 | 0.00 | 0.18 | 0.01 | 65 | 1010.2 |
| 20260507172007 | 59 | 300 | 0.9 | 2.6 | 0.00 | 0.18 | 0.01 | 63 | 1010.4 |
| 20260507171522 | 58 | 293 | 0.0 | 2.6 | 0.00 | 0.18 | 0.01 | 66 | 1010.6 |
| 20260507171003 | 57 | 352 | 0.0 | 4.3 | 0.00 | 0.18 | 0.01 | 65 | 1010.6 |
| 20260507170507 | 57 | 69 | 1.7 | 5.2 | 0.00 | 0.18 | 0.01 | 64 | 1010.7 |
| 20260507170013 | 57 | 188 | 2.6 | 6.1 | 0.00 | 0.18 | 0.01 | 68 | 1010.9 |
| 20260507165506 | 57 | 226 | 2.6 | 6.1 | 0.00 | 0.18 | 0.01 | 67 | 1010.9 |
| 20260507164519 | 56 | 210 | 4.3 | 7.8 | 0.00 | 0.18 | 0.01 | 70 | 1010.9 |
| 20260507163022 | 56 | 114 | 1.7 | 4.3 | 0.00 | 0.18 | 0.01 | 67 | 1011.3 |
| 20260507162507 | 57 | 122 | 2.6 | 3.5 | 0.00 | 0.18 | 0.01 | 67 | 1011.4 |
| 20260507161006 | 56 | 300 | 0.0 | 1.7 | 0.00 | 0.18 | 0.01 | 68 | 1011.7 |
| 20260507160508 | 55 | 309 | 0.0 | 1.7 | 0.00 | 0.18 | 0.01 | 67 | 1012.2 |
| 20260507160025 | 55 | 321 | 0.0 | 3.5 | 0.00 | 0.18 | 0.01 | 72 | 1012.1 |
| 20260507155508 | 55 | 329 | 0.9 | 3.5 | 0.00 | 0.18 | 0.01 | 69 | 1012.0 |
| 20260507154515 | 55 | 321 | 0.9 | 4.3 | 0.00 | 0.18 | 0.01 | 70 | 1011.9 |
| 20260507153017 | 54 | 227 | 0.0 | 2.6 | 0.00 | 0.18 | 0.01 | 72 | 1012.1 |
| 20260507150514 | 54 | 18 | 0.0 | 3.5 | 0.00 | 0.18 | 0.01 | 76 | 1012.1 |
| 20260507145513 | 53 | 322 | 0.0 | 3.5 | 0.00 | 0.18 | 0.01 | 77 | 1012.3 |
| 20260507145007 | 53 | 219 | 0.9 | 3.5 | 0.00 | 0.18 | 0.01 | 76 | 1012.3 |
| 20260507144524 | 53 | 82 | 0.0 | 0.9 | 0.00 | 0.18 | 0.01 | 78 | 1012.4 |
| 20260507144010 | 53 | 285 | 0.0 | 3.5 | 0.00 | 0.18 | 0.01 | 79 | 1012.3 |
| 20260507142014 | 52 | 97 | 0.9 | 3.5 | 0.00 | 0.18 | 0.01 | 78 | 1012.8 |
| 20260507141521 | 53 | 46 | 0.0 | 0.9 | 0.00 | 0.18 | 0.01 | 81 | 1012.7 |
| 20260507141008 | 52 | 16 | 0.0 | 0.9 | 0.00 | 0.18 | 0.01 | 81 | 1012.8 |
| 20260507140508 | 52 | 120 | 0.0 | 3.5 | 0.00 | 0.18 | 0.01 | 81 | 1012.8 |
| 20260507140024 | 52 | 20 | 0.0 | 3.5 | 0.00 | 0.18 | 0.01 | 80 | 1012.8 |
| 20260507135508 | 52 | 45 | 0.0 | 3.5 | 0.00 | 0.18 | 0.01 | 81 | 1012.8 |
| 20260507135009 | 52 | 68 | 0.0 | 6.1 | 0.00 | 0.18 | 0.01 | 82 | 1012.8 |
| 20260507134522 | 52 | 89 | 0.0 | 6.1 | 0.00 | 0.18 | 0.01 | 81 | 1012.8 |
| 20260507134010 | 53 | 85 | 0.0 | 4.3 | 0.00 | 0.18 | 0.01 | 82 | 1012.8 |
| 20260507133507 | 53 | 70 | 0.9 | 4.3 | 0.00 | 0.18 | 0.01 | 80 | 1012.8 |
| 20260507133022 | 53 | 257 | 0.0 | 0.9 | 0.00 | 0.18 | 0.01 | 82 | 1012.8 |
| 20260507132510 | 53 | 64 | 0.0 | 3.5 | 0.00 | 0.18 | 0.01 | 84 | 1012.8 |
| 20260507132005 | 53 | 64 | 0.9 | 3.5 | 0.00 | 0.19 | 0.01 | 83 | 1012.8 |
| 20260507131517 | 53 | 60 | 0.0 | 1.7 | 0.00 | 0.19 | 0.01 | 84 | 1012.9 |
| 20260507131009 | 53 | 328 | 0.0 | 3.5 | 0.00 | 0.19 | 0.01 | 87 | 1013.0 |
| 20260507130508 | 53 | 337 | 0.0 | 4.3 | 0.00 | 0.19 | 0.01 | 86 | 1012.9 |
| 20260507130021 | 53 | 308 | 1.7 | 4.3 | 0.00 | 0.20 | 0.01 | 86 | 1012.9 |
| 20260507123503 | 52 | 284 | 0.0 | 1.7 | 0.00 | 0.22 | 0.01 | 88 | 1012.9 |
| 20260507123009 | 52 | 235 | 0.0 | 1.7 | 0.00 | 0.22 | 0.01 | 89 | 1013.0 |
| 20260507122504 | 52 | 287 | 0.0 | 1.7 | 0.00 | 0.22 | 0.01 | 89 | 1012.9 |
| 20260507122006 | 52 | 261 | 0.0 | 1.7 | 0.00 | 0.22 | 0.01 | 89 | 1012.7 |
| 20260507121515 | 52 | 289 | 0.0 | 1.7 | 0.00 | 0.22 | 0.01 | 90 | 1012.5 |
| 20260507121007 | 52 | 276 | 0.0 | 0.0 | 0.00 | 0.23 | 0.01 | 90 | 1012.3 |
| 20260507120505 | 52 | 294 | 0.0 | 0.0 | 0.00 | 0.23 | 0.01 | 90 | 1012.3 |
| 20260507120019 | 52 | 290 | 0.0 | 0.0 | 0.00 | 0.23 | 0.01 | 90 | 1012.2 |
| 20260507115506 | 52 | 298 | 0.0 | 0.0 | 0.00 | 0.23 | 0.01 | 91 | 1012.3 |
| 20260507115010 | 52 | 300 | 0.0 | 0.0 | 0.00 | 0.24 | 0.01 | 91 | 1012.2 |
| 20260507114003 | 52 | 259 | 0.0 | 0.0 | 0.00 | 0.24 | 0.01 | 91 | 1012.4 |
| 20260507113012 | 52 | 323 | 0.0 | 1.7 | 0.00 | 0.24 | 0.01 | 91 | 1012.3 |
| 20260507112506 | 52 | 327 | 0.0 | 0.9 | 0.00 | 0.24 | 0.01 | 91 | 1012.2 |
| 20260507112004 | 52 | 266 | 0.0 | 0.9 | 0.00 | 0.24 | 0.01 | 92 | 1012.4 |
| 20260507111513 | 52 | 259 | 0.0 | 1.7 | 0.00 | 0.24 | 0.01 | 91 | 1012.4 |
| 20260507111004 | 52 | 314 | 0.0 | 2.6 | 0.00 | 0.24 | 0.01 | 92 | 1012.2 |
| 20260507110503 | 52 | 314 | 0.9 | 2.6 | 0.00 | 0.24 | 0.01 | 91 | 1012.2 |
| 20260507110018 | 52 | 250 | 0.0 | 0.9 | 0.00 | 0.24 | 0.01 | 91 | 1012.0 |
| 20260507105505 | 52 | 265 | 0.0 | 0.0 | 0.00 | 0.25 | 0.01 | 91 | 1011.8 |
| 20260507105006 | 52 | 248 | 0.0 | 0.0 | 0.00 | 0.25 | 0.01 | 91 | 1011.8 |
| 20260507104523 | 52 | 248 | 0.0 | 0.0 | 0.00 | 0.25 | 0.01 | 91 | 1011.8 |
| 20260507104009 | 52 | 248 | 0.0 | 0.9 | 0.00 | 0.25 | 0.01 | 91 | 1011.7 |
| 20260507103508 | 52 | 248 | 0.0 | 0.9 | 0.00 | 0.25 | 0.01 | 91 | 1011.7 |
| 20260507103005 | 52 | 248 | 0.0 | 0.9 | 0.00 | 0.25 | 0.01 | 91 | 1011.8 |
| 20260507102503 | 52 | 248 | 0.0 | 0.9 | 0.00 | 0.25 | 0.01 | 91 | 1012.0 |
| 20260507102006 | 52 | 248 | 0.0 | 1.7 | 0.00 | 0.25 | 0.01 | 90 | 1011.9 |
| 20260507101510 | 52 | 248 | 0.0 | 2.6 | 0.00 | 0.25 | 0.01 | 90 | 1011.9 |
| 20260507101004 | 52 | 248 | 0.9 | 2.6 | 0.00 | 0.25 | 0.01 | 90 | 1012.0 |
| 20260507100504 | 52 | 249 | 0.0 | 0.9 | 0.00 | 0.25 | 0.01 | 91 | 1011.8 |
| 20260507100019 | 52 | 278 | 0.0 | 1.7 | 0.00 | 0.25 | 0.01 | 90 | 1011.8 |
| 20260507095505 | 52 | 301 | 0.9 | 2.6 | 0.00 | 0.25 | 0.01 | 90 | 1011.6 |
| 20260507095008 | 52 | 266 | 0.9 | 2.6 | 0.00 | 0.25 | 0.01 | 90 | 1011.8 |
| 20260507094524 | 52 | 261 | 0.0 | 0.9 | 0.00 | 0.25 | 0.01 | 90 | 1011.8 |
| 20260507094007 | 52 | 159 | 0.0 | 0.0 | 0.00 | 0.25 | 0.01 | 89 | 1011.4 |
| 20260507093507 | 52 | 159 | 0.0 | 1.7 | 0.00 | 0.25 | 0.01 | 89 | 1011.5 |
| 20260507093024 | 52 | 159 | 0.0 | 3.5 | 0.00 | 0.25 | 0.01 | 89 | 1011.2 |
| 20260507092508 | 52 | 116 | 0.9 | 4.3 | 0.00 | 0.25 | 0.01 | 89 | 1011.4 |
| 20260507092010 | 53 | 148 | 1.7 | 4.3 | 0.00 | 0.25 | 0.01 | 89 | 1011.6 |
| 20260507091530 | 52 | 138 | 0.0 | 1.7 | 0.00 | 0.25 | 0.01 | 87 | 1011.4 |
| 20260507091003 | 53 | 84 | 0.0 | 3.5 | 0.00 | 0.25 | 0.01 | 89 | 1011.4 |
| 20260507090504 | 53 | 143 | 0.9 | 3.5 | 0.00 | 0.25 | 0.01 | 89 | 1011.6 |
| 20260507090016 | 53 | 303 | 0.0 | 0.0 | 0.00 | 0.25 | 0.01 | 88 | 1011.6 |
| 20260507085505 | 53 | 300 | 0.0 | 0.0 | 0.00 | 0.25 | 0.01 | 86 | 1011.3 |
| 20260507085004 | 53 | 300 | 0.0 | 2.6 | 0.00 | 0.25 | 0.01 | 88 | 1011.3 |
| 20260507084522 | 53 | 300 | 0.0 | 6.1 | 0.00 | 0.25 | 0.01 | 87 | 1011.3 |
| 20260507084007 | 53 | 124 | 0.0 | 6.1 | 0.00 | 0.25 | 0.01 | 88 | 1011.1 |
| 20260507083507 | 53 | 262 | 0.9 | 6.1 | 0.00 | 0.25 | 0.01 | 88 | 1011.1 |
| 20260507083020 | 53 | 335 | 0.0 | 0.0 | 0.00 | 0.25 | 0.01 | 89 | 1011.1 |
| 20260507082508 | 53 | 335 | 0.0 | 0.9 | 0.00 | 0.25 | 0.01 | 90 | 1011.3 |
| 20260507082010 | 53 | 10 | 0.0 | 3.5 | 0.00 | 0.25 | 0.01 | 90 | 1011.2 |
| 20260507081525 | 53 | 311 | 0.9 | 3.5 | 0.00 | 0.25 | 0.01 | 90 | 1011.4 |
| 20260507081006 | 53 | 305 | 0.9 | 2.6 | 0.00 | 0.25 | 0.01 | 90 | 1011.5 |
| 20260507080511 | 53 | 302 | 0.0 | 0.0 | 0.00 | 0.25 | 0.01 | 90 | 1011.6 |
| 20260507080023 | 53 | 94 | 0.0 | 0.0 | 0.00 | 0.25 | 0.01 | 91 | 1011.5 |
| 20260507075504 | 53 | 94 | 0.0 | 0.0 | 0.00 | 0.25 | 0.01 | 91 | 1011.3 |
| 20260507075004 | 54 | 320 | 0.0 | 0.9 | 0.00 | 0.25 | 0.01 | 91 | 1011.4 |
| 20260507074511 | 54 | 326 | 0.0 | 4.3 | 0.00 | 0.25 | 0.01 | 91 | 1011.3 |
| 20260507074007 | 54 | 323 | 0.9 | 4.3 | 0.00 | 0.25 | 0.01 | 91 | 1011.4 |
| 20260507073507 | 54 | 312 | 1.7 | 3.5 | 0.00 | 0.25 | 0.01 | 91 | 1011.2 |
| 20260507073015 | 54 | 320 | 1.7 | 2.6 | 0.00 | 0.25 | 0.01 | 91 | 1011.2 |
| 20260507072506 | 54 | 311 | 1.7 | 2.6 | 0.00 | 0.25 | 0.01 | 91 | 1010.9 |
| 20260507072008 | 54 | 279 | 0.0 | 2.6 | 0.00 | 0.25 | 0.01 | 90 | 1010.7 |
| 20260507071519 | 54 | 323 | 1.7 | 3.5 | 0.00 | 0.25 | 0.01 | 90 | 1010.6 |
| 20260507071010 | 55 | 325 | 0.0 | 3.5 | 0.00 | 0.25 | 0.01 | 91 | 1010.8 |
| 20260507070507 | 55 | 42 | 0.0 | 0.9 | 0.00 | 0.25 | 0.01 | 92 | 1010.9 |
| 20260507070022 | 55 | 283 | 0.0 | 0.9 | 0.00 | 0.25 | 0.01 | 93 | 1010.8 |
| 20260507065507 | 55 | 316 | 0.0 | 0.0 | 0.00 | 0.25 | 0.01 | 93 | 1010.6 |
| 20260507065010 | 55 | 316 | 0.0 | 3.5 | 0.00 | 0.25 | 0.01 | 92 | 1010.6 |
| 20260507064525 | 55 | 316 | 0.9 | 3.5 | 0.00 | 0.25 | 0.01 | 91 | 1010.7 |
| 20260507064005 | 55 | 295 | 1.7 | 3.5 | 0.00 | 0.25 | 0.01 | 91 | 1010.8 |
| 20260507063505 | 55 | 309 | 2.6 | 3.5 | 0.00 | 0.25 | 0.01 | 91 | 1010.8 |
| 20260507063015 | 55 | 307 | 1.7 | 4.3 | 0.00 | 0.25 | 0.01 | 91 | 1010.7 |
| 20260507062506 | 55 | 300 | 2.6 | 5.2 | 0.00 | 0.25 | 0.01 | 91 | 1010.8 |
| 20260507062007 | 55 | 293 | 0.9 | 5.2 | 0.00 | 0.25 | 0.01 | 91 | 1010.5 |
| 20260507061518 | 55 | 309 | 1.7 | 5.2 | 0.00 | 0.25 | 0.01 | 91 | 1010.5 |
| 20260507061009 | 56 | 273 | 1.7 | 3.5 | 0.00 | 0.25 | 0.01 | 91 | 1010.6 |
| 20260507060507 | 56 | 285 | 1.7 | 3.5 | 0.00 | 0.25 | 0.01 | 92 | 1010.7 |
| 20260507060026 | 56 | 272 | 0.9 | 4.3 | 0.00 | 0.25 | 0.01 | 91 | 1010.8 |
| 20260507055510 | 56 | 288 | 1.7 | 4.3 | 0.00 | 0.25 | 0.01 | 91 | 1011.0 |
| 20260507055007 | 56 | 306 | 0.0 | 3.5 | 0.00 | 0.25 | 0.01 | 92 | 1010.9 |
| 20260507054524 | 56 | 307 | 1.7 | 3.5 | 0.00 | 0.25 | 0.01 | 92 | 1011.0 |
| 20260507054010 | 56 | 314 | 0.9 | 6.1 | 0.00 | 0.25 | 0.01 | 93 | 1011.1 |
| 20260507053513 | 56 | 326 | 1.7 | 8.7 | 0.00 | 0.25 | 0.01 | 93 | 1010.9 |
| 20260507053026 | 56 | 319 | 3.5 | 8.7 | 0.00 | 0.25 | 0.01 | 93 | 1010.5 |
| 20260507052510 | 56 | 321 | 3.5 | 7.8 | 0.00 | 0.25 | 0.01 | 94 | 1010.3 |
| 20260507052010 | 56 | 308 | 4.3 | 7.8 | 0.00 | 0.25 | 0.01 | 94 | 1010.5 |
| 20260507051515 | 56 | 282 | 0.0 | 6.1 | 0.00 | 0.25 | 0.01 | 95 | 1010.4 |
| 20260507051008 | 56 | 312 | 2.6 | 6.1 | 0.00 | 0.25 | 0.01 | 94 | 1010.6 |
| 20260507050505 | 56 | 306 | 1.7 | 5.2 | 0.00 | 0.25 | 0.01 | 94 | 1010.4 |
| 20260507050020 | 57 | 319 | 3.5 | 6.1 | 0.01 | 0.25 | 0.01 | 94 | 1010.1 |
| 20260507045506 | 57 | 317 | 2.6 | 9.6 | 0.02 | 0.25 | 0.01 | 94 | 1010.1 |
| 20260507045006 | 57 | 307 | 5.2 | 9.6 | 0.12 | 0.25 | 0.01 | 93 | 1010.0 |
| 20260507044543 | 58 | 319 | 4.3 | 9.6 | 0.13 | 0.25 | 0.01 | 94 | 1009.8 |
| 20260507044007 | 59 | 308 | 5.2 | 7.8 | 0.13 | 0.25 | 0.01 | 94 | 1009.9 |
| 20260507043506 | 59 | 133 | 4.3 | 6.1 | 0.13 | 0.25 | 0.01 | 96 | 1009.5 |
| 20260507043025 | 59 | 168 | 3.5 | 6.1 | 0.13 | 0.25 | 0.01 | 96 | 1009.7 |
| 20260507042511 | 58 | 221 | 2.6 | 3.5 | 0.13 | 0.25 | 0.01 | 96 | 1009.8 |
| 20260507042010 | 58 | 165 | 2.6 | 3.5 | 0.13 | 0.25 | 0.01 | 95 | 1009.8 |
| 20260507041528 | 59 | 235 | 1.7 | 3.5 | 0.13 | 0.25 | 0.01 | 95 | 1010.2 |
| 20260507041011 | 59 | 213 | 0.9 | 2.6 | 0.15 | 0.25 | 0.01 | 95 | 1010.3 |
| 20260507040504 | 59 | 311 | 0.0 | 4.3 | 0.16 | 0.25 | 0.01 | 95 | 1010.4 |
| 20260507040019 | 59 | 130 | 0.0 | 7.0 | 0.15 | 0.24 | 0.00 | 94 | 1010.6 |
| 20260507035506 | 60 | 308 | 2.6 | 7.0 | 0.14 | 0.23 | 0.23 | 94 | 1011.1 |
| 20260507035007 | 60 | 302 | 4.3 | 7.0 | 0.04 | 0.13 | 0.13 | 94 | 1011.1 |
| 20260507034520 | 60 | 298 | 4.3 | 6.1 | 0.03 | 0.12 | 0.12 | 94 | 1010.8 |
| 20260507034007 | 61 | 272 | 1.7 | 3.5 | 0.03 | 0.12 | 0.12 | 94 | 1010.4 |
| 20260507033508 | 61 | 283 | 0.0 | 2.6 | 0.03 | 0.12 | 0.12 | 94 | 1010.5 |
| 20260507033024 | 61 | 298 | 0.0 | 2.6 | 0.03 | 0.12 | 0.12 | 93 | 1010.4 |
| 20260507032509 | 61 | 300 | 0.0 | 2.6 | 0.03 | 0.12 | 0.12 | 93 | 1010.4 |
| 20260507032003 | 61 | 299 | 0.0 | 0.9 | 0.03 | 0.12 | 0.12 | 93 | 1010.4 |
| 20260507031508 | 61 | 84 | 0.0 | 3.5 | 0.03 | 0.12 | 0.12 | 93 | 1010.4 |
| 20260507031004 | 62 | 53 | 1.7 | 7.0 | 0.01 | 0.10 | 0.10 | 93 | 1010.4 |
| 20260507030503 | 62 | 317 | 0.0 | 7.0 | 0.00 | 0.09 | 0.09 | 93 | 1010.3 |
| 20260507030016 | 62 | 347 | 3.5 | 6.1 | 0.00 | 0.09 | 0.09 | 93 | 1010.4 |
| 20260507025505 | 62 | 290 | 1.7 | 4.3 | 0.00 | 0.09 | 0.09 | 93 | 1010.3 |
| 20260507025006 | 62 | 285 | 0.0 | 2.6 | 0.00 | 0.09 | 0.09 | 93 | 1010.3 |
| 20260507024519 | 62 | 246 | 0.0 | 2.6 | 0.00 | 0.09 | 0.09 | 92 | 1010.1 |
| 20260507024006 | 62 | 247 | 0.0 | 2.6 | 0.00 | 0.09 | 0.09 | 93 | 1010.1 |
| 20260507023506 | 62 | 262 | 0.0 | 5.2 | 0.00 | 0.09 | 0.09 | 93 | 1010.1 |
| 20260507023021 | 62 | 224 | 2.6 | 7.8 | 0.00 | 0.09 | 0.09 | 93 | 1010.0 |
| 20260507022507 | 62 | 134 | 1.7 | 7.8 | 0.00 | 0.09 | 0.09 | 93 | 1009.5 |
| 20260507022009 | 62 | 307 | 3.5 | 5.2 | 0.00 | 0.09 | 0.09 | 93 | 1009.8 |
| 20260507021528 | 62 | 133 | 0.0 | 1.7 | 0.00 | 0.09 | 0.09 | 92 | 1009.3 |
| 20260507021014 | 62 | 261 | 0.9 | 3.5 | 0.00 | 0.09 | 0.09 | 92 | 1009.5 |
| 20260507020508 | 62 | 304 | 0.9 | 3.5 | 0.00 | 0.09 | 0.09 | 92 | 1009.5 |
| 20260507020010 | 62 | 320 | 1.7 | 3.5 | 0.00 | 0.09 | 0.09 | 91 | 1009.5 |
| 20260507015502 | 62 | 316 | 1.7 | 3.5 | 0.00 | 0.09 | 0.09 | 90 | 1009.4 |
| 20260507015005 | 62 | 317 | 0.9 | 4.3 | 0.00 | 0.09 | 0.09 | 89 | 1009.4 |
| 20260507014515 | 62 | 295 | 2.6 | 4.3 | 0.00 | 0.09 | 0.09 | 89 | 1009.4 |
| 20260507014006 | 63 | 326 | 2.6 | 4.3 | 0.00 | 0.09 | 0.09 | 89 | 1009.2 |
| 20260507013505 | 64 | 286 | 0.0 | 3.5 | 0.00 | 0.09 | 0.09 | 89 | 1008.9 |
| 20260507013019 | 64 | 181 | 1.7 | 3.5 | 0.00 | 0.09 | 0.09 | 89 | 1008.8 |
| 20260507012508 | 63 | 233 | 0.0 | 3.5 | 0.00 | 0.09 | 0.09 | 88 | 1008.9 |
| 20260507012008 | 64 | 223 | 0.0 | 5.2 | 0.00 | 0.09 | 0.09 | 88 | 1009.0 |
| 20260507011520 | 64 | 255 | 3.5 | 5.2 | 0.00 | 0.09 | 0.09 | 88 | 1009.2 |
| 20260507011012 | 64 | 274 | 2.6 | 3.5 | 0.00 | 0.09 | 0.09 | 89 | 1009.3 |
| 20260507010509 | 64 | 240 | 0.0 | 0.0 | 0.00 | 0.09 | 0.09 | 90 | 1009.3 |
| 20260507010029 | 64 | 277 | 0.0 | 0.9 | 0.01 | 0.09 | 0.09 | 90 | 1009.2 |
| 20260507005510 | 64 | 265 | 0.0 | 2.6 | 0.02 | 0.09 | 0.09 | 91 | 1009.3 |
| 20260507005008 | 65 | 293 | 0.0 | 2.6 | 0.02 | 0.09 | 0.09 | 91 | 1009.4 |
| 20260507004511 | 65 | 293 | 0.9 | 1.7 | 0.02 | 0.09 | 0.09 | 91 | 1009.4 |
| 20260507004005 | 65 | 310 | 0.0 | 3.5 | 0.02 | 0.09 | 0.09 | 91 | 1009.4 |
| 20260507003502 | 65 | 302 | 0.9 | 3.5 | 0.02 | 0.09 | 0.09 | 90 | 1009.3 |
| 20260507003025 | 65 | 320 | 0.9 | 4.3 | 0.02 | 0.09 | 0.09 | 89 | 1009.5 |
| 20260507002506 | 65 | 44 | 0.0 | 6.1 | 0.02 | 0.09 | 0.09 | 88 | 1009.3 |
| 20260507002007 | 66 | 322 | 3.5 | 6.1 | 0.02 | 0.09 | 0.09 | 87 | 1009.4 |
| 20260507001534 | 66 | 356 | 0.9 | 6.1 | 0.02 | 0.09 | 0.09 | 87 | 1009.2 |
| 20260507001007 | 67 | 310 | 3.5 | 6.1 | 0.02 | 0.09 | 0.09 | 87 | 1009.3 |
| 20260507000508 | 68 | 338 | 0.0 | 1.7 | 0.02 | 0.09 | 0.09 | 86 | 1008.7 |
| 20260507000022 | 69 | 334 | 0.9 | 2.6 | 0.01 | 0.08 | 0.08 | 82 | 1008.6 |
| 20260506235507 | 69 | 326 | 0.0 | 3.5 | 0.00 | 0.07 | 0.07 | 78 | 1008.5 |
| 20260506235009 | 69 | 66 | 0.9 | 3.5 | 0.00 | 0.07 | 0.07 | 77 | 1008.3 |
| 20260506234523 | 70 | 64 | 0.0 | 2.6 | 0.00 | 0.07 | 0.07 | 76 | 1008.5 |
| 20260506234008 | 70 | 84 | 0.9 | 2.6 | 0.00 | 0.07 | 0.07 | 76 | 1008.3 |
| 20260506233510 | 70 | 125 | 0.0 | 4.3 | 0.00 | 0.07 | 0.07 | 75 | 1008.5 |
| 20260506233014 | 70 | 143 | 1.7 | 4.3 | 0.00 | 0.07 | 0.07 | 75 | 1008.5 |
| 20260506232503 | 71 | 145 | 2.6 | 4.3 | 0.00 | 0.07 | 0.07 | 75 | 1008.5 |
| 20260506232008 | 71 | 161 | 2.6 | 4.3 | 0.00 | 0.07 | 0.07 | 74 | 1008.6 |
| 20260506231514 | 71 | 198 | 2.6 | 4.3 | 0.00 | 0.07 | 0.07 | 74 | 1008.4 |
| 20260506231007 | 71 | 160 | 1.7 | 4.3 | 0.00 | 0.07 | 0.07 | 73 | 1008.3 |
| 20260506230505 | 71 | 172 | 3.5 | 4.3 | 0.00 | 0.07 | 0.07 | 73 | 1008.3 |
| 20260506230019 | 72 | 135 | 1.7 | 5.2 | 0.00 | 0.07 | 0.07 | 73 | 1008.2 |
| 20260506225507 | 72 | 165 | 1.7 | 5.2 | 0.00 | 0.07 | 0.07 | 72 | 1008.2 |
| 20260506225007 | 72 | 138 | 0.9 | 8.7 | 0.00 | 0.07 | 0.07 | 72 | 1008.1 |
| 20260506224524 | 72 | 167 | 1.7 | 8.7 | 0.00 | 0.07 | 0.07 | 70 | 1008.2 |
| 20260506223511 | 73 | 149 | 2.6 | 12.2 | 0.00 | 0.07 | 0.07 | 70 | 1008.2 |
| 20260506223024 | 73 | 222 | 3.5 | 12.2 | 0.00 | 0.07 | 0.07 | 69 | 1008.2 |
| 20260506222509 | 73 | 217 | 5.2 | 12.2 | 0.00 | 0.07 | 0.07 | 68 | 1008.1 |
| 20260506222009 | 73 | 245 | 4.3 | 12.2 | 0.00 | 0.07 | 0.07 | 68 | 1008.1 |
| 20260506221509 | 74 | 254 | 1.7 | 8.7 | 0.00 | 0.07 | 0.07 | 68 | 1008.2 |
| 20260506221003 | 74 | 203 | 3.5 | 8.7 | 0.00 | 0.07 | 0.07 | 69 | 1008.1 |